Location: Cronhütte
(48.9135°N, 9.6869°E)
Time: 07:24:59
(UTC+00:00)

FORMOSAT 3E - Visible Passes

Search period start: 07 October 2024 00:00
Search period end: 17 October 2024 00:00
Orbit: 743 x 837 km, 72.0° (Epoch: 06 October)

Date Brightness Start Highest point End Pass type
(mag) Time Alt. Az. Time Alt. Az. Time Alt. Az.
07 Oct 8.2 17:09:29 10° NNW 17:14:40 79° WSW 17:19:54 10° SSE visible
07 Oct 11.1 18:54:42 10° WNW 18:56:34 12° W 18:58:26 10° WSW visible
08 Oct 10.9 18:22:57 10° WNW 18:26:15 17° W 18:29:36 10° SW visible
09 Oct 10.5 17:51:47 10° NW 17:55:53 24° WSW 18:00:04 10° SSW visible
10 Oct 10.0 17:20:50 10° NW 17:25:28 34° WSW 17:30:10 10° SSW visible
13 Oct 11.3 17:33:11 10° WNW 17:35:55 14° W 17:38:41 10° SW visible
14 Oct 11.5 04:55:01 10° ESE 04:57:20 13° E 04:59:39 10° ENE visible
14 Oct 11.1 17:01:46 10° NW 17:05:33 21° W 17:09:22 10° SSW visible
